TimeMST,TemperatureF,Dew PointF,Humidity,Sea Level PressureIn,VisibilityMPH,Wind Direction,Wind SpeedMPH,Gust SpeedMPH,PrecipitationIn,Events,Conditions,WindDirDegrees,DateUTC
12:53 AM,60.1,24.1,25,29.94,10.0,SE,9.2,-,N/A,,Clear,140,2012-11-01 07:53:00
1:53 AM,57.9,24.1,27,29.94,10.0,SE,6.9,-,N/A,,Clear,140,2012-11-01 08:53:00
2:53 AM,57.0,24.1,28,29.93,10.0,SSE,4.6,-,N/A,,Clear,150,2012-11-01 09:53:00
3:53 AM,57.0,24.1,28,29.93,10.0,SSE,9.2,-,N/A,,Clear,150,2012-11-01 10:53:00
4:53 AM,55.9,24.1,29,29.94,10.0,SE,9.2,-,N/A,,Clear,140,2012-11-01 11:53:00
5:53 AM,55.9,24.1,29,29.95,10.0,SE,10.4,-,N/A,,Clear,140,2012-11-01 12:53:00
6:53 AM,57.0,24.1,28,29.96,10.0,SE,10.4,-,N/A,,Clear,140,2012-11-01 13:53:00
7:53 AM,60.1,25.0,26,29.97,10.0,SE,13.8,-,N/A,,Clear,140,2012-11-01 14:53:00
8:53 AM,66.0,26.1,22,29.97,10.0,SSE,8.1,-,N/A,,Clear,160,2012-11-01 15:53:00
9:53 AM,73.0,26.1,17,29.96,10.0,SSE,6.9,-,N/A,,Clear,160,2012-11-01 16:53:00
10:53 AM,78.1,26.1,15,29.94,10.0,SSE,5.8,-,N/A,,Clear,150,2012-11-01 17:53:00
11:53 AM,82.9,23.0,11,29.91,10.0,Variable,3.5,-,N/A,,Clear,0,2012-11-01 18:53:00
12:53 PM,87.1,23.0,10,29.86,10.0,East,6.9,-,N/A,,Clear,80,2012-11-01 19:53:00
1:53 PM,86.0,26.1,11,29.84,10.0,Variable,4.6,-,N/A,,Clear,0,2012-11-01 20:53:00
2:53 PM,86.0,26.1,11,29.83,10.0,WNW,8.1,-,N/A,,Clear,290,2012-11-01 21:53:00
3:53 PM,86.0,25.0,11,29.82,10.0,Variable,3.5,-,N/A,,Clear,0,2012-11-01 22:53:00
4:53 PM,84.9,27.0,12,29.82,10.0,West,10.4,-,N/A,,Clear,280,2012-11-01 23:53:00
5:53 PM,80.1,28.0,15,29.84,10.0,NNW,5.8,-,N/A,,Clear,330,2012-11-02 00:53:00
6:53 PM,75.0,28.0,18,29.86,10.0,SW,5.8,-,N/A,,Clear,220,2012-11-02 01:53:00
7:53 PM,72.0,28.0,20,29.88,10.0,WSW,5.8,-,N/A,,Clear,250,2012-11-02 02:53:00
8:53 PM,69.1,28.0,22,29.88,10.0,WSW,3.5,-,N/A,,Clear,240,2012-11-02 03:53:00
9:53 PM,66.9,27.0,22,29.89,10.0,South,4.6,-,N/A,,Clear,190,2012-11-02 04:53:00
10:53 PM,64.0,28.0,26,29.89,10.0,South,4.6,-,N/A,,Clear,180,2012-11-02 05:53:00
11:53 PM,63.0,28.9,28,29.89,10.0,South,8.1,-,N/A,,Clear,170,2012-11-02 06:53:00